User: anonymous   Login
Location: Saint-Denis
(20.8800°S, 55.4481°E)
Time: 17:51:01
(UTC+04:00)
Language:

AO-73 - Orbit

View from above orbital plane
View from above orbital plane
View from above satellite
View from above satellite

Ground track
Ground track

The orbit data is extracted from the following two-line orbital elements,

1 39444U 13066AE  24113.87212177  .00015645  00000-0  15468-2 0  9993
2 39444  97.7149  74.1187 0047691 326.9506  32.8734 14.91127401562458
Epoch (UTC): 22 April 2024 20:55:51
Eccentricity: 0.0047691
inclination: 97.7149°
perigee height: 561 km
apogee height: 627 km
right ascension of ascending node: 74.1187°
argument of perigee: 326.9506°
revolutions per day: 14.91127401
mean anomaly at epoch: 32.8734°
orbit number at epoch: 56245

The dashed part of the orbit path shows where the satellite is in the earth's shadow,  

DLR